Location: Pinhey's Point
(45.4411°N, 75.9539°W)
Time: 01:25:06
(UTC-04:00)

Iridium 65 - Visible Passes

Search period start: 24 April 2017 00:00
Search period end: 04 May 2017 00:00
Orbit: 776 x 779 km, 86.4° (Epoch: 22 April)

Date Brightness Start Highest point End Pass type
(mag) Time Alt. Az. Time Alt. Az. Time Alt. Az.
24 Apr 8.2 01:46:48 10° ENE 01:47:18 10° ENE 01:47:49 10° ENE visible
24 Apr 5.5 03:25:33 47° S 03:27:04 79° E 03:32:19 10° N visible
24 Apr 7.4 05:06:01 11° W 05:08:28 14° WNW 05:11:12 10° NW visible
25 Apr 6.4 02:52:13 36° SE 02:53:38 44° E 02:58:36 10° NNE visible
25 Apr 6.8 04:32:42 20° WSW 04:34:34 24° WNW 04:38:48 10° NNW visible
26 Apr 7.2 02:18:52 22° ESE 02:20:20 26° E 02:24:35 10° NNE visible
26 Apr 6.0 03:59:21 34° WSW 04:00:49 41° W 04:05:46 10° N visible
27 Apr 7.8 01:45:31 13° E 01:47:09 15° ENE 01:49:58 10° NE visible
27 Apr 5.4 03:26:00 53° SSW 03:27:11 74° W 03:32:25 10° N visible
28 Apr 5.8 02:52:38 51° SE 02:53:41 63° E 02:58:51 10° N visible
28 Apr 7.1 04:33:07 15° W 04:34:54 18° WNW 04:38:21 10° NNW visible
29 Apr 6.6 02:19:15 32° ESE 02:20:18 36° E 02:25:01 10° NNE visible
29 Apr 6.5 03:59:44 26° WSW 04:01:03 30° WNW 04:05:37 10° NNW visible
30 Apr 7.4 01:45:53 19° E 01:47:02 21° E 01:50:50 10° NNE visible
30 Apr 5.7 03:26:21 45° WSW 03:27:20 52° W 03:32:27 10° N visible
01 May 8.0 01:12:30 11° E 01:13:54 12° ENE 01:15:38 10° NE visible
01 May 5.4 02:52:58 65° S 02:53:45 89° E 02:59:01 10° N visible
01 May 7.5 04:33:26 11° W 04:35:15 12° WNW 04:37:26 10° NW visible
02 May 6.0 02:19:34 46° ESE 02:20:18 50° E 02:25:20 10° NNE visible
02 May 6.9 04:00:02 20° W 04:01:20 22° WNW 04:05:19 10° NNW visible
03 May 6.9 01:46:09 27° E 01:46:58 29° E 01:51:23 10° NNE visible
03 May 6.2 03:26:38 34° WSW 03:27:32 37° W 03:32:22 10° NNW visible
